Date,TemperatureHighF,TemperatureAvgF,TemperatureLowF,DewpointHighF,DewpointAvgF,DewpointLowF,HumidityHigh,HumidityAvg,HumidityLow,PressureMaxIn,PressureMinIn,WindSpeedMaxMPH,WindSpeedAvgMPH,GustSpeedMaxMPH,PrecipitationSumIn
2013-1-1,22,8,-5,11,0,-14,80,70,59,30.68,30.27,7,0,7,0.01
2013-1-2,24,13,1,5,0,-7,72,55,38,30.79,30.47,8,1,8,0.00
2013-1-3,22,8,-6,3,-2,-12,77,63,43,30.89,30.58,6,0,6,0.00
2013-1-4,36,20,-3,13,3,-11,66,49,35,30.83,30.27,6,0,6,0.02
2013-1-5,39,23,2,17,6,-8,67,50,34,30.73,30.31,8,0,8,0.01
2013-1-6,40,26,-2,14,6,-10,70,43,32,30.80,30.09,12,1,12,0.00
2013-1-7,37,23,12,16,9,0,68,54,36,30.28,30.01,10,1,10,0.00
2013-1-8,45,29,11,19,11,-1,72,50,31,30.53,30.08,8,0,8,0.00
2013-1-9,42,26,10,20,11,2,70,54,38,30.74,30.35,8,0,8,0.00
2013-1-10,51,35,8,17,10,-2,65,38,16,30.32,29.69,24,3,24,0.00
2013-1-11,27,18,9,13,2,-8,78,49,31,30.03,29.36,52,7,52,0.00
2013-1-12,18,8,-3,-5,-9,-14,67,45,28,30.41,30.07,8,1,8,0.00
2013-1-13,17,11,-4,2,-4,-11,78,53,33,30.52,30.25,14,1,14,0.00
2013-1-14,14,4,-8,1,-4,-13,79,70,57,30.54,30.27,6,0,7,0.00
2013-1-15,27,14,-15,10,1,-21,77,55,43,30.80,30.47,14,1,14,0.00
2013-1-16,40,26,8,20,12,0,76,57,40,30.62,30.27,8,0,8,0.01
2013-1-17,40,27,10,22,15,3,78,62,45,30.84,30.45,10,1,10,0.00
2013-1-18,42,28,4,20,12,-3,75,53,37,30.66,30.27,7,1,7,0.00
2013-1-19,45,31,7,19,10,-3,65,44,25,30.73,30.34,9,1,9,0.00
2013-1-20,48,33,11,19,9,-3,68,39,16,30.60,30.15,9,1,9,0.00
2013-1-21,46,32,7,21,14,0,71,48,27,30.56,30.23,9,1,10,0.00
2013-1-22,53,36,17,19,12,3,66,38,17,30.52,30.21,14,1,14,0.00
2013-1-23,54,38,14,25,13,-2,53,37,15,30.68,30.20,10,1,10,0.00
2013-1-24,50,38,31,19,12,6,39,34,29,30.23,30.06,20,2,20,0.00
2013-1-25,51,40,29,32,28,23,79,62,43,30.20,29.97,20,1,20,0.00
2013-1-26,47,38,28,35,30,21,88,71,53,30.10,29.60,15,1,15,0.06
2013-1-27,47,41,37,29,25,19,65,53,45,29.69,29.58,19,3,20,0.01
2013-1-28,42,37,30,31,23,10,83,59,40,29.64,29.42,27,6,27,0.00
2013-1-29,25,21,17,15,7,-3,78,55,31,30.01,29.62,25,5,25,0.00
2013-1-30,35,26,6,10,6,-5,62,44,31,30.23,29.97,34,5,34,0.01
2013-1-31,44,36,17,16,11,6,63,37,28,30.20,30.05,23,4,23,0.00
2013-2-1,44,36,18,16,12,9,68,37,25,30.27,30.03,31,7,31,0.00
2013-2-2,51,37,14,16,12,6,70,38,18,30.55,30.28,5,0,5,0.00
2013-2-3,49,39,19,19,15,5,64,38,17,30.33,29.92,26,3,26,0.00
2013-2-4,49,37,12,14,10,5,73,34,20,30.17,29.88,16,3,16,0.00
2013-2-5,56,39,16,18,14,7,69,40,19,30.19,29.88,11,1,11,0.00
2013-2-7,46,33,18,25,17,5,86,57,19,30.26,30.03,10,1,10,0.01
2013-2-8,45,40,19,20,18,13,78,40,31,30.16,29.56,45,9,45,0.00
2013-2-10,33,27,19,15,6,-3,75,42,23,30.00,29.75,23,3,23,0.00
2013-2-11,18,13,-1,13,8,-9,83,80,76,30.43,30.11,7,0,7,0.00
2013-2-12,28,15,-5,10,3,-11,79,60,42,30.57,30.34,9,1,9,0.02
2013-2-13,40,27,0,20,12,-7,73,53,39,30.56,30.07,15,2,15,0.04
2013-2-14,40,25,6,19,13,-2,79,61,35,30.49,30.17,18,1,18,0.02
2013-2-15,36,26,4,12,7,-2,79,47,29,30.62,30.31,24,4,24,0.01
2013-2-16,47,36,8,16,12,0,73,38,24,30.59,30.18,16,3,16,0.00
2013-2-17,47,39,23,9,6,2,46,26,18,30.03,29.60,32,9,32,0.00
2013-2-18,36,29,18,18,4,-3,83,37,22,30.24,29.91,23,4,25,0.01
2013-2-19,46,33,14,14,9,0,69,40,16,30.26,29.78,19,2,19,0.00
2013-2-20,39,28,20,26,22,14,87,79,54,29.81,29.50,14,1,14,0.00
2013-2-21,31,24,18,21,18,14,87,78,64,29.99,29.54,9,1,9,0.14
2013-2-22,31,22,10,20,14,5,85,75,56,30.17,29.93,9,1,9,0.05
2013-2-23,43,29,6,19,14,1,79,54,33,30.12,29.69,16,2,16,0.04
2013-2-24,28,23,18,19,16,10,84,73,62,30.15,29.73,20,4,21,0.05
2013-2-25,35,21,1,12,6,-4,81,55,36,30.38,30.00,10,1,10,0.00
2013-2-26,28,20,8,20,13,0,85,74,49,30.31,29.91,15,2,15,0.00
2013-2-27,29,10,-8,12,1,-14,82,68,43,30.74,30.31,7,0,7,0.09
2013-2-28,37,24,-6,15,8,-12,74,49,33,30.86,30.39,11,1,11,0.02
2013-3-1,45,35,14,23,18,6,69,50,38,30.50,30.25,29,6,29,0.01
2013-3-2,48,38,15,28,23,9,78,54,39,30.54,30.19,11,1,11,0.00
2013-3-3,54,47,35,26,21,15,52,36,26,29.91,29.57,27,6,27,0.00
2013-3-4,47,34,19,32,21,14,86,62,31,30.25,29.56,31,6,31,0.00
2013-3-5,54,37,12,18,11,5,81,39,15,30.50,30.12,9,1,9,0.00
2013-3-6,56,48,34,22,18,10,46,31,19,30.06,29.65,30,4,30,0.00
2013-3-7,59,48,35,21,15,9,57,28,16,29.86,29.62,27,4,27,0.00
2013-3-8,51,44,34,29,23,18,81,44,28,29.83,29.50,24,4,29,0.00
2013-3-9,35,28,23,26,22,17,88,78,52,30.09,29.53,22,4,22,0.04
2013-3-10,42,30,11,18,14,6,82,54,34,30.36,30.07,18,3,19,0.02
2013-3-11,49,37,15,24,18,8,78,46,30,30.29,29.89,25,3,25,0.02
2013-3-12,52,38,22,32,26,17,88,65,33,30.28,29.97,12,2,12,0.00
2013-3-13,57,47,26,28,24,20,78,43,27,30.34,30.10,14,2,14,0.00
2013-3-14,63,51,30,29,22,18,77,36,19,30.38,30.04,25,2,25,0.00
2013-3-15,64,53,29,29,22,18,76,34,18,30.11,29.69,25,3,25,0.00
2013-3-16,49,41,34,33,30,25,86,65,44,29.90,29.73,15,2,15,0.00
2013-3-17,52,44,34,32,22,15,82,45,27,29.71,29.44,40,11,42,0.02
2013-3-18,45,40,32,12,9,5,39,28,22,29.92,29.76,33,8,33,0.00
2013-3-19,48,41,30,13,10,5,44,28,19,30.20,29.88,23,4,23,0.00
2013-3-20,50,43,16,24,16,9,76,36,22,30.34,29.61,27,4,27,0.00
2013-3-21,50,42,29,30,19,11,66,41,28,29.72,29.38,31,8,31,0.00
2013-3-22,46,38,26,26,16,8,87,44,24,29.82,29.52,29,4,30,0.00
2013-3-23,22,16,10,17,11,5,84,80,76,30.38,29.71,18,2,18,0.03
2013-3-24,29,20,-4,13,7,-9,80,60,33,30.55,30.20,24,4,24,0.07
2013-3-25,34,24,4,15,8,-1,83,52,29,30.52,30.36,13,2,13,0.01
2013-3-26,52,44,16,24,20,9,77,39,26,30.40,29.85,20,3,20,0.00
2013-3-27,56,50,43,29,22,16,56,35,24,29.93,29.77,19,2,19,0.00
2013-3-28,55,40,26,28,25,21,83,57,28,30.11,29.97,11,1,11,0.00
2013-3-29,60,50,28,27,23,18,78,38,20,30.15,29.92,24,5,24,0.00
2013-3-30,59,51,27,29,24,20,77,37,24,30.13,29.87,24,5,29,0.00
2013-3-31,62,52,38,33,19,9,77,31,13,30.04,29.77,28,3,28,0.00
2013-4-1,58,46,31,29,26,22,77,47,28,30.01,29.74,18,2,18,0.00
2013-4-2,47,37,29,29,28,25,88,70,49,30.07,29.87,16,2,16,0.00
2013-4-3,52,41,29,33,29,23,90,64,37,30.22,29.95,22,2,22,0.16
2013-4-4,62,49,24,29,23,19,83,42,20,30.26,29.92,13,1,13,0.00
2013-4-5,64,54,40,32,24,13,50,33,18,29.92,29.55,33,7,33,0.01
2013-4-6,60,54,39,31,22,11,63,31,16,29.79,29.57,21,3,21,0.00
2013-4-7,58,51,40,24,22,20,48,33,23,29.66,29.50,29,6,29,0.00
2013-4-8,60,54,36,27,23,17,56,29,22,29.51,29.09,46,8,46,0.00
2013-4-9,24,19,13,19,14,9,83,79,70,30.21,29.62,23,4,23,0.00
2013-4-10,23,13,8,14,7,3,81,77,67,30.32,30.17,7,1,7,0.00
2013-4-12,52,45,24,29,24,19,83,45,29,29.92,29.74,24,4,24,0.00
2013-4-13,59,52,26,29,20,14,88,30,22,29.83,29.17,48,9,48,0.00
2013-4-14,55,46,35,34,22,13,88,42,25,29.50,29.32,30,7,30,0.06
2013-4-15,58,51,30,28,25,20,66,37,27,29.59,29.36,28,6,30,0.00
2013-4-16,45,36,25,27,23,18,79,59,48,29.84,29.63,24,4,24,0.00
2013-4-17,33,29,27,28,25,23,87,84,79,29.84,29.71,14,2,15,0.02
2013-5-2,27,26,26,18,18,17,70,70,69,30.74,30.72,8,3,8,0.00
2013-5-6,43,43,43,38,37,37,80,80,79,29.79,29.79,2,0,2,0.05
2013-11-6,46,39,24,20,17,15,71,42,30,30.62,30.34,20,2,20,0.00
2013-11-8,54,54,54,18,18,18,24,24,24,29.73,29.73,8,5,20,0.02